When you browse on this site, cookies collect data to enhance your experience and personalize the content and advertising you see.
Visit our Privacy Policy to learn more. By continuing to use the site, you agree to this use of cookies and data.
  • en Suisse
  • Liste des pays
  • À 7 jours
  • Température de l'eau
  • Carte satellitaire
  • Carte météo
  • Widgets météo
  • user-avatar
    Se connecter

    Météo par heure à Maracay

    Ce jour, 24 Juillet, Mercredi

    Heure Température Précipitation Vent Pression Humidité
    00:00 +23°C° 0 mm 1 m/s 712 mmHg 92%
    01:00 +23°C° 0 mm 1 m/s 712 mmHg 92%
    02:00 +23°C° 0 mm 1 m/s 712 mmHg 92%
    03:00 +23°C° 0 mm 1 m/s 711 mmHg 92%
    04:00 +23°C° 0 mm 1 m/s 711 mmHg 91%
    05:00 +21°C° 0 mm 0 m/s 712 mmHg 89%
    06:00 +22°C° 0 mm 0 m/s 712 mmHg 87%
    07:00 +23°C° 0 mm 0 m/s 713 mmHg 85%
    08:00 +26°C° 0.2 mm 1 m/s 713 mmHg 80%
    09:00 +28°C° 0.2 mm 1 m/s 713 mmHg 74%
    10:00 +29°C° 0.2 mm 1 m/s 714 mmHg 69%
    11:00 +29°C° 0.6 mm 1 m/s 713 mmHg 69%
    12:00 +29°C° 0.6 mm 2 m/s 712 mmHg 69%
    13:00 +30°C° 0.6 mm 2 m/s 712 mmHg 70%
    14:00 +29°C° 0.7 mm 1 m/s 711 mmHg 72%
    15:00 +29°C° 0.7 mm 1 m/s 711 mmHg 74%
    16:00 +28°C° 0.7 mm 1 m/s 711 mmHg 77%
    17:00 +27°C° 0.1 mm 1 m/s 711 mmHg 81%
    18:00 +26°C° 0.1 mm 1 m/s 711 mmHg 85%
    19:00 +24°C° 0.1 mm 1 m/s 711 mmHg 89%
    20:00 +24°C° 0 mm 1 m/s 711 mmHg 90%
    21:00 +24°C° 0 mm 1 m/s 712 mmHg 90%
    22:00 +23°C° 0 mm 1 m/s 712 mmHg 91%
    23:00 +23°C° 0 mm 1 m/s 712 mmHg 91%

    Demain, 25 Juillet, Jeudi

    Heure Température Précipitation Vent Pression Humidité
    00:00 +23°C° 0 mm 1 m/s 711 mmHg 91%
    01:00 +23°C° 0 mm 1 m/s 711 mmHg 91%
    02:00 +22°C° 0 mm 1 m/s 711 mmHg 91%
    03:00 +22°C° 0 mm 1 m/s 711 mmHg 91%
    04:00 +22°C° 0 mm 1 m/s 711 mmHg 92%
    05:00 +23°C° 0 mm 1 m/s 711 mmHg 89%
    06:00 +24°C° 0 mm 1 m/s 711 mmHg 87%
    07:00 +22°C° 0 mm 0 m/s 712 mmHg 85%
    08:00 +26°C° 0 mm 1 m/s 712 mmHg 76%
    09:00 +27°C° 0 mm 1 m/s 713 mmHg 68%
    10:00 +29°C° 0 mm 2 m/s 713 mmHg 59%
    11:00 +29°C° 0 mm 2 m/s 713 mmHg 58%
    12:00 +30°C° 0 mm 2 m/s 712 mmHg 56%
    13:00 +30°C° 0 mm 2 m/s 712 mmHg 55%
    14:00 +30°C° 0 mm 2 m/s 711 mmHg 58%
    15:00 +30°C° 0 mm 2 m/s 711 mmHg 60%
    16:00 +29°C° 0 mm 1 m/s 710 mmHg 63%
    17:00 +27°C° 0 mm 1 m/s 710 mmHg 71%
    18:00 +26°C° 0 mm 1 m/s 711 mmHg 79%
    19:00 +24°C° 0 mm 1 m/s 711 mmHg 87%
    20:00 +24°C° 0 mm 1 m/s 711 mmHg 88%
    21:00 +24°C° 0 mm 1 m/s 712 mmHg 88%
    22:00 +23°C° 0 mm 1 m/s 712 mmHg 89%
    23:00 +23°C° 0 mm 1 m/s 712 mmHg 88%

    Après-demain, 26 Juillet, Vendredi

    Heure Température Précipitation Vent Pression Humidité
    00:00 +23°C° 0 mm 1 m/s 711 mmHg 88%
    01:00 +23°C° 0 mm 1 m/s 711 mmHg 88%
    02:00 +23°C° 0 mm 1 m/s 711 mmHg 88%
    03:00 +22°C° 0 mm 1 m/s 711 mmHg 88%
    04:00 +22°C° 0 mm 1 m/s 711 mmHg 88%
    05:00 +23°C° 0 mm 1 m/s 712 mmHg 85%
    06:00 +24°C° 0 mm 1 m/s 712 mmHg 82%
    07:00 +25°C° 0 mm 1 m/s 713 mmHg 79%
    08:00 +27°C° 0 mm 1 m/s 713 mmHg 73%
    09:00 +28°C° 0 mm 2 m/s 713 mmHg 66%
    10:00 +29°C° 0 mm 2 m/s 714 mmHg 60%
    11:00 +30°C° 0.1 mm 2 m/s 713 mmHg 59%
    12:00 +30°C° 0.1 mm 2 m/s 713 mmHg 58%
    13:00 +31°C° 0.1 mm 2 m/s 712 mmHg 57%
    14:00 +30°C° 0.9 mm 2 m/s 712 mmHg 64%
    15:00 +29°C° 0.9 mm 2 m/s 711 mmHg 70%
    16:00 +28°C° 0.9 mm 1 m/s 711 mmHg 77%
    17:00 +27°C° 0.3 mm 1 m/s 711 mmHg 81%
    18:00 +26°C° 0.3 mm 1 m/s 712 mmHg 85%
    19:00 +25°C° 0.3 mm 1 m/s 712 mmHg 89%
    20:00 +24°C° 0 mm 1 m/s 712 mmHg 89%
    21:00 +24°C° 0 mm 1 m/s 713 mmHg 90%
    22:00 +23°C° 0 mm 1 m/s 713 mmHg 91%
    23:00 +23°C° 0 mm 1 m/s 713 mmHg 91%

    27 Juillet, Samedi

    Heure Température Précipitation Vent Pression Humidité
    00:00 +23°C° 0 mm 1 m/s 712 mmHg 91%
    01:00 +23°C° 0 mm 1 m/s 712 mmHg 91%
    02:00 +23°C° 0 mm 1 m/s 712 mmHg 91%
    03:00 +23°C° 0 mm 1 m/s 712 mmHg 91%
    04:00 +22°C° 0 mm 1 m/s 712 mmHg 91%
    05:00 +23°C° 0 mm 1 m/s 712 mmHg 90%
    06:00 +24°C° 0 mm 1 m/s 713 mmHg 88%
    07:00 +25°C° 0 mm 1 m/s 713 mmHg 86%
    08:00 +26°C° 0 mm 1 m/s 714 mmHg 79%
    09:00 +28°C° 0 mm 1 m/s 714 mmHg 72%
    10:00 +29°C° 0 mm 2 m/s 714 mmHg 65%
    11:00 +29°C° 0.3 mm 2 m/s 714 mmHg 66%
    12:00 +29°C° 0.3 mm 2 m/s 713 mmHg 66%
    13:00 +29°C° 0.3 mm 2 m/s 712 mmHg 67%
    14:00 +29°C° 0.7 mm 2 m/s 712 mmHg 71%
    15:00 +28°C° 0.7 mm 2 m/s 712 mmHg 76%
    16:00 +27°C° 0.7 mm 2 m/s 711 mmHg 80%
    17:00 +26°C° 0.4 mm 1 m/s 712 mmHg 83%
    18:00 +25°C° 0.4 mm 1 m/s 712 mmHg 86%
    19:00 +24°C° 0.4 mm 1 m/s 712 mmHg 88%
    20:00 +24°C° 0.2 mm 1 m/s 713 mmHg 89%
    21:00 +24°C° 0.2 mm 1 m/s 713 mmHg 90%
    22:00 +23°C° 0.2 mm 1 m/s 713 mmHg 91%
    23:00 +23°C° 0.1 mm 1 m/s 713 mmHg 91%

    28 Juillet, Dimanche

    Heure Température Précipitation Vent Pression Humidité
    00:00 +21°C° 0.1 mm 0 m/s 713 mmHg 92%
    01:00 +21°C° 0.1 mm 0 m/s 712 mmHg 92%
    02:00 +21°C° 0.1 mm 0 m/s 712 mmHg 92%
    03:00 +21°C° 0.1 mm 0 m/s 712 mmHg 93%
    04:00 +23°C° 0.1 mm 1 m/s 712 mmHg 93%
    05:00 +23°C° 0.3 mm 1 m/s 712 mmHg 92%
    06:00 +24°C° 0.3 mm 1 m/s 713 mmHg 91%
    07:00 +22°C° 0.3 mm 0 m/s 713 mmHg 91%
    08:00 +25°C° 0.4 mm 1 m/s 713 mmHg 86%
    09:00 +26°C° 0.4 mm 1 m/s 713 mmHg 81%
    10:00 +27°C° 0.4 mm 1 m/s 714 mmHg 77%
    11:00 +26°C° 0.9 mm 2 m/s 713 mmHg 80%
    12:00 +26°C° 0.9 mm 2 m/s 713 mmHg 84%
    13:00 +25°C° 0.9 mm 2 m/s 712 mmHg 87%
    14:00 +25°C° 0.3 mm 2 m/s 712 mmHg 88%
    15:00 +24°C° 0.3 mm 2 m/s 711 mmHg 89%
    16:00 +24°C° 0.3 mm 1 m/s 711 mmHg 90%
    17:00 +24°C° 0 mm 1 m/s 711 mmHg 89%
    18:00 +23°C° 0 mm 1 m/s 711 mmHg 89%
    19:00 +23°C° 0 mm 1 m/s 711 mmHg 89%
    20:00 +23°C° 0 mm 1 m/s 711 mmHg 87%
    21:00 +21°C° 0 mm 0 m/s 712 mmHg 86%
    22:00 +21°C° 0 mm 0 m/s 712 mmHg 85%
    23:00 +21°C° 0 mm 0 m/s 712 mmHg 85%

    29 Juillet, Lundi

    Heure Température Précipitation Vent Pression Humidité
    00:00 +23°C° 0 mm 1 m/s 711 mmHg 85%
    01:00 +22°C° 0 mm 1 m/s 711 mmHg 85%
    02:00 +22°C° 0 mm 1 m/s 711 mmHg 86%
    03:00 +22°C° 0 mm 1 m/s 711 mmHg 87%
    04:00 +22°C° 0 mm 1 m/s 711 mmHg 88%
    05:00 +22°C° 0 mm 1 m/s 711 mmHg 87%
    06:00 +23°C° 0 mm 1 m/s 712 mmHg 85%
    07:00 +23°C° 0 mm 1 m/s 712 mmHg 84%
    08:00 +25°C° 0 mm 2 m/s 713 mmHg 78%
    09:00 +26°C° 0 mm 2 m/s 713 mmHg 72%
    10:00 +28°C° 0 mm 2 m/s 713 mmHg 66%
    11:00 +28°C° 0 mm 2 m/s 713 mmHg 65%
    12:00 +29°C° 0 mm 2 m/s 712 mmHg 64%
    13:00 +30°C° 0 mm 2 m/s 711 mmHg 63%
    14:00 +29°C° 0.1 mm 2 m/s 711 mmHg 65%
    15:00 +29°C° 0.1 mm 2 m/s 710 mmHg 68%
    16:00 +28°C° 0.1 mm 2 m/s 710 mmHg 70%
    17:00 +27°C° 0 mm 2 m/s 710 mmHg 76%
    18:00 +26°C° 0 mm 1 m/s 710 mmHg 82%
    19:00 +24°C° 0 mm 1 m/s 711 mmHg 88%
    20:00 +24°C° 0 mm 1 m/s 711 mmHg 89%
    21:00 +24°C° 0 mm 1 m/s 711 mmHg 90%
    22:00 +23°C° 0 mm 1 m/s 712 mmHg 91%
    23:00 +23°C° 0 mm 1 m/s 712 mmHg 91%
    Voir plus